カタログに戻る

COSMOS 886 DEB

運用中LEO
NORAD 9951·DEBRIS·🇷🇺 Russia

打ち上げ Dec 27, 1976 から Baikonur Cosmodrome

Loading…

次のパス (今後24時間)

TLE

最新Source: Space-Track

元期: Sep 13, 2026, 10:16 UTC

1 09951U 76126AR  26256.42820170  .00001304  00000-0  50746-3 0  9994
2 09951  65.8180 259.5933 0771960  53.5648 313.4069 13.32465441 71682

AllMySatでCOSMOS 886 DEBをリアルタイム追跡

Download on the App Store